Regional Weather Roundup
Issued by NWS

Home | Current Version | Previous Version | Text Only | Print | Product List | Glossary Off
Versions: 1 2 3 4 5 6 7 8 9 10 11 12 13 14 15 16 17 18 19 20 21 22 23 24 25 26 27 28 29 30 31 32 33 34 35 36 37 38 39 40 41 42 43 44 45 46 47 48 49 50

608
ASUS43 KMPX 231301
RWRMN
WEATHER ROUNDUP FOR MINNESOTA
NATIONAL WEATHER SERVICE TWIN CITIES/CHANHASSEN MN
800 AM CDT TUE MAY 23 2017


NOTE: "FAIR" INDICATES FEW OR NO CLOUDS BELOW 12,000 FEET WITH NO
SIGNIFICANT WEATHER AND/OR OBSTRUCTIONS TO VISIBILITY. N/A MEANS
CURRENT SKY AND/OR WEATHER CONDITIONS ARE NOT AVAILABLE.

MNZ060>063-068>070-231400-
   Twin Cities Metro

CITY           SKY/WX    TMP DP  RH WIND       PRES   REMARKS
TWIN CITIES    CLOUDY    52  44  74 N6        29.82R
ST PAUL        CLOUDY    51  49  92 N3        29.83R
CRYSTAL        CLOUDY    48  43  82 N6        29.81S
BLAINE         CLOUDY    50  48  93 CALM      29.82R
LAKEVILLE      CLOUDY    48  48 100 NW6       29.81S
EDEN PRAIRIE   CLOUDY    50  45  83 N7        29.81R
SOUTH ST PAUL  CLOUDY    51  48  88 CALM      29.81S
LAKE ELMO      PTSUNNY   50  48  93 CALM      29.82S
$$
MNZ001>005-007-008-013>017-022>024-027-028-231400-
   Northwest Minnesota

CITY           SKY/WX    TMP DP  RH WIND       PRES   REMARKS
BEMIDJI        DRIZZLE   46  45  98 N12G17    29.89R
HALLOCK        MOSUNNY   50  45  81 N17       30.02R
ROSEAU         CLOUDY    48  43  81 NE15      29.99R
WARROAD        CLOUDY    48  45  87 NE18      29.99R
THIEF RVR FALL CLOUDY    46  43  87 N15       29.97R
CROOKSTON      CLOUDY    46  45  93 N13G18    29.97R FOG
FOSSTON        DRIZZLE   45  45 100 N13       29.92R
DETROIT LAKES  CLOUDY    46  45  93 N6        29.89S
MOORHEAD       CLOUDY    46  45  93 N17       29.93R
PARK RAPIDS    CLOUDY    49  44  83 NE7       29.86S
MAHNOMEN       CLOUDY    46  45  95 N14       29.90R
$$
MNZ006-009>011-018-025>026-231400-
   North Central Minnesota

CITY           SKY/WX    TMP DP  RH WIND       PRES   REMARKS
BAUDETTE       CLOUDY    47  43  86 NE14      29.96R
FLAG ISLAND    CLOUDY    48  41  76 N20       29.99R
INTL FALLS     LGT RAIN  46  42  86 NE12      29.93R FOG
WASKISH        CLOUDY    45  45 100 NE10G20   29.93R
BIG FORK       DRIZZLE   46  46 100 CALM      29.89R
LONGVILLE      CLOUDY    46  45  93 NE3       29.87R
GRAND RAPIDS   CLOUDY    46  43  89 N6        29.89R
CRANE LAKE     DRIZZLE   46  45  93 NE5       29.92R
ORR            CLOUDY    46  45  93 N5        29.86S
COOK           CLOUDY    45  45 100 CALM      29.88S FOG
WALKER         CLOUDY    46  45  95 N6        29.88R
$$
MNZ012-019>021-037-231400-
   Northeast Minnesota

CITY           SKY/WX    TMP DP  RH WIND       PRES   REMARKS
DULUTH         CLOUDY    47  44  90 N6        29.85R
ELY            FOG       43  41  93 CALM      29.88R VSB 1/2
HIBBING        CLOUDY    43  43 100 NE5       29.87R
EVELETH        CLOUDY    45  43  93 NE7       29.88R
DULUTH HARBOR  CLOUDY    46  45  93 CALM      29.87R
TWO HARBORS    CLOUDY    52  45  76 CALM      29.83S
SILVER BAY     CLOUDY    48  45  87 NE5       29.84R
GRAND MARAIS     N/A     48  44  86 NE3       29.87R
G MARAIS ARPRT CLOUDY    45  41  87 N9        29.87R
$$
MNZ029>031-032-039>041-046>048-054>057-064-231400-
   West Central Minnesota

CITY           SKY/WX    TMP DP  RH WIND       PRES   REMARKS
FERGUS FALLS   CLOUDY    46  46 100 N9        29.88S
WHEATON        CLOUDY    46  45  93 NW14      29.92S
MORRIS         CLOUDY    48  46  93 N13       29.87R
ALEXANDRIA     CLOUDY    47  46  97 N10       29.87R
ELBOW LAKE     LGT RAIN  46  46  97 NW9       29.88S
WADENA         LGT RAIN  46  45  93 N7        29.86R
GLENWOOD       CLOUDY    46  45  93 N7        29.86S
APPLETON       CLOUDY    48  45  87 N9G17     29.88R
BENSON         DRIZZLE   48  46  93 N7        29.88S
ORTONVILLE     CLOUDY    48  45  87 N13       29.89R
MADISON        CLOUDY    52  50  93 N13       29.89R
WILLMAR        DRIZZLE   48  46  93 N5        29.86S
$$
MNZ033>034-036-042>043-049>051-058-059-231400-
   Central Minnesota

CITY           SKY/WX    TMP DP  RH WIND       PRES   REMARKS
ST CLOUD       CLOUDY    47  46  97 N7        29.84S
SAUK CENTRE    CLOUDY    46  44  95 N7        29.85S
PAYNESVILLE    CLOUDY    46  46 100 N6        29.85S
AITKIN         CLOUDY    46  45  93 CALM      29.84S
PINE RIVER     CLOUDY    46  46 100 NE3       29.90R
BRAINERD       CLOUDY    47  44  90 NE8       29.86R
STAPLES        CLOUDY    45  45 100 N3        29.86S
LONG PRAIRIE   CLOUDY    45  43  93 NW5       29.86R
LITTLE FALLS   CLOUDY    45  43  93 CALM      29.86R
LITCHFIELD     CLOUDY    46  46 100 N5        29.85S
BUFFALO        RAIN      48  45  88 N5        29.84S
MAPLE LAKE     CLOUDY    49  47  92 N7        29.85S
HUTCHINSON     DRIZZLE   48  47  96 NW7       29.85S
$$
MNZ037-044-045-052-053-231400-
   East Central Minnesota

CITY           SKY/WX    TMP DP  RH WIND       PRES   REMARKS
PRINCETON      CLOUDY    48  46  93 N6        29.84S
MORA           PTSUNNY   45  43  93 NE3       29.86R
CAMBRIDGE      CLOUDY    50  45  81 N3        29.82S
RUSH CITY      CLOUDY    48  45  88 N3        29.84R
MOOSE LAKE     CLOUDY    46  43  87 N3        29.84R
HINCKLEY       CLOUDY    48  46  93 NE5       29.84S
CLOQUET        CLOUDY    46  43  87 CALM      29.85R
MCGREGOR       CLOUDY    46  43  87 NE3       29.86R
$$
MNZ071>073-080-081-089-090-097-098-231400-
   Southwest Minnesota

CITY           SKY/WX    TMP DP  RH WIND       PRES   REMARKS
MONTEVIDEO     CLOUDY    48  48 100 N10       29.87R
CANBY          CLOUDY    49  46  90 NW7       29.90R
MARSHALL       LGT RAIN  47  45  93 N8        29.87S FOG
REDWOOD FALLS  LGT RAIN  48  45  89 NW6       29.85S FOG
OLIVIA         CLOUDY    50  46  87 N7        29.85R
PIPESTONE      RAIN      46  41  81 N8        29.87S
WINDOM         DRIZZLE   46  45  93 N9        29.85S
WORTHINGTON    LGT RAIN  46  44  93 N13       29.87R
JACKSON        RAIN      45  45 100 N8        29.86R
TRACY          DRIZZLE   48  47  96 N9        29.87S
SLAYTON        CLOUDY    45  44  95 NW9       29.87S
$$
MNZ065>067-074>077-082>085-091>093-231400-
   South Central Minnesota

CITY           SKY/WX    TMP DP  RH WIND       PRES   REMARKS
MANKATO        LGT RAIN  48  46  93 NW8       29.83S
NEW ULM        CLOUDY    46  45  93 NW9       29.84S
ST JAMES       CLOUDY    48  45  87 NW10      29.85S
FAIRMONT       CLOUDY    48  45  89 NW10      29.85R
GLENCOE        DRIZZLE   48  48 100 NW6       29.83S
FARIBAULT      LGT RAIN  50  46  87 NW6       29.82S
OWATONNA       CLOUDY    50  46  87 NW9       29.81S
WASECA         CLOUDY    50  46  87 W9        29.83R
ALBERT LEA     CLOUDY    50  48  93 W6        29.82R FOG
$$
MNZ078>079-086>088-094>096-231400-
   Southeast Minnesota

CITY           SKY/WX    TMP DP  RH WIND       PRES   REMARKS
ROCHESTER      CLOUDY    50  48  93 NW8       29.81R
RED WING       CLOUDY    54  46  76 CALM      29.79S
STANTON        CLOUDY    51  48  88 CALM      29.80S
DODGE CENTER   CLOUDY    50  46  87 NW5       29.81R
WINONA         CLOUDY    54  52  94 NW6       29.79S
AUSTIN         CLOUDY    50  46  87 NW5       29.80S
PRESTON        RAIN      48  46  93 N7        29.80S
$$
ABBREVIATIONS USED IN REMARKS
   TC - TEMPERATURES IN CELSIUS
  WCI - WIND CHILL INDEX
   HX - HEAT INDEX
  VSB - VISIBILITY
$$




USA.gov is the U.S. government's official web portal to all federal, state and local government web resources and services.